EW8665 Weather Reports


time (UTC)temp
C
wind
direction
speed
KPH
gust
KPH
rain 1hr
cm
rain 24hr
cm
rain mn
cm
humidity
%
barometer
mb
20260905100005 20 259 6.4 11.3 0.05 0.05 0.08 81 1025.8
20260905095504 21 261 6.4 12.9 0.03 0.05 0.08 81 1025.7
20260905095005 21 267 6.4 12.9 0.00 0.03 0.05 80 1025.5
20260905094004 21 277 0.0 0.0 0.00 0.03 0.05 78 1025.1
20260905093504 21 253 0.0 0.0 0.00 0.03 0.05 78 1025.0
20260905093004 21 253 0.0 3.2 0.00 0.03 0.05 77 1024.9
20260905092504 21 253 0.0 3.2 0.00 0.03 0.05 76 1025.0
20260905092004 21 254 0.0 3.2 0.00 0.03 0.05 76 1025.0
20260905091504 21 252 1.6 6.4 0.00 0.03 0.05 76 1025.0
20260905091005 21 246 1.6 6.4 0.00 0.03 0.05 76 1024.9
20260905090504 21 255 1.6 6.4 0.00 0.03 0.05 75 1024.9
20260905090005 21 46 0.0 0.0 0.00 0.03 0.05 75 1024.8
20260905085505 21 46 0.0 0.0 0.00 0.03 0.05 76 1024.6
20260905085004 21 131 0.0 0.0 0.00 0.03 0.05 77 1024.4
20260905084504 21 163 0.0 1.6 0.00 0.03 0.05 77 1024.6
20260905084004 21 254 0.0 1.6 0.00 0.03 0.05 77 1024.4
20260905083504 21 252 0.0 1.6 0.00 0.03 0.05 77 1024.6
20260905083005 21 249 0.0 1.6 0.00 0.03 0.05 76 1024.6
20260905082504 21 250 0.0 1.6 0.00 0.03 0.05 77 1024.5
20260905082005 21 251 1.6 4.8 0.00 0.03 0.05 77 1024.5
20260905081504 20 257 1.6 4.8 0.00 0.03 0.05 78 1024.4
20260905081005 20 252 0.0 3.2 0.00 0.03 0.05 79 1024.4
20260905080505 20 251 0.0 3.2 0.00 0.03 0.05 78 1024.3
20260905080004 20 259 0.0 3.2 0.00 0.03 0.05 79 1024.2
20260905075004 20 20 0.0 1.6 0.00 0.03 0.05 80 1024.1
20260905074504 20 10 0.0 1.6 0.00 0.03 0.05 81 1024.0
20260905074005 20 6 0.0 0.0 0.00 0.03 0.05 81 1024.0
20260905073504 20 14 0.0 0.0 0.00 0.03 0.05 81 1024.0
20260905073004 19 39 0.0 1.6 0.00 0.03 0.05 81 1023.8
20260905072504 19 27 0.0 3.2 0.00 0.03 0.05 81 1023.9
20260905071504 19 122 0.0 1.6 0.00 0.03 0.05 82 1023.8
20260905071004 19 160 0.0 3.2 0.00 0.03 0.05 82 1023.8
20260905070505 19 178 0.0 3.2 0.00 0.03 0.05 82 1023.7
20260905070005 19 204 0.0 3.2 0.00 0.03 0.05 82 1023.5
20260905065505 19 211 0.0 3.2 0.00 0.03 0.05 83 1023.4
20260905065004 19 208 1.6 6.4 0.00 0.03 0.05 83 1023.5
20260905064005 19 28 1.6 4.8 0.00 0.03 0.05 86 1023.4
20260905063505 19 43 1.6 4.8 0.00 0.03 0.05 86 1023.5
20260905063006 19 29 1.6 4.8 0.00 0.03 0.05 86 1023.4
20260905062504 18 31 3.2 4.8 0.00 0.03 0.05 86 1023.2
20260905062004 18 27 3.2 4.8 0.00 0.03 0.05 86 1023.1
20260905061505 18 18 3.2 6.4 0.00 0.03 0.05 86 1022.9
20260905061005 18 20 3.2 6.4 0.00 0.03 0.05 86 1023.0
20260905060504 18 10 3.2 6.4 0.00 0.03 0.05 87 1022.8
20260905060004 18 12 3.2 6.4 0.00 0.03 0.05 87 1022.8
20260905055504 18 18 3.2 6.4 0.00 0.03 0.05 87 1022.6
20260905055005 18 30 3.2 4.8 0.00 0.03 0.05 87 1022.5
20260905054504 18 35 3.2 4.8 0.00 0.03 0.05 87 1022.5
20260905054004 18 37 3.2 4.8 0.00 0.03 0.05 88 1022.4
20260905053504 18 54 1.6 4.8 0.00 0.03 0.05 88 1022.2
20260905052505 18 58 3.2 8.0 0.00 0.03 0.05 86 1022.4
20260905052004 18 62 3.2 8.0 0.00 0.03 0.05 86 1022.5
20260905051004 18 63 3.2 6.4 0.03 0.03 0.05 84 1022.4
20260905050005 18 81 1.6 4.8 0.05 0.03 0.05 84 1022.3
20260905045504 18 57 3.2 8.0 0.05 0.03 0.05 84 1022.2
20260905045004 18 47 3.2 8.0 0.05 0.03 0.05 86 1022.3
20260905044504 18 52 3.2 4.8 0.05 0.03 0.05 86 1022.3
20260905044004 18 42 3.2 4.8 0.05 0.03 0.05 83 1021.9
20260905043505 18 35 3.2 6.4 0.05 0.03 0.05 83 1021.8
20260905042505 18 68 3.2 4.8 0.03 0.03 0.03 81 1021.5
20260905041504 18 75 0.0 3.2 0.03 0.03 0.03 81 1021.4
20260905040504 18 57 1.6 6.4 0.00 0.00 0.00 78 1021.7
20260905040004 18 58 3.2 6.4 0.00 0.00 0.00 77 1021.6
20260905035504 18 50 3.2 6.4 0.00 0.00 0.00 76 1021.4
20260905035004 18 70 1.6 3.2 0.00 0.00 0.00 76 1021.3
20260905034504 18 107 1.6 3.2 0.00 0.00 0.00 76 1021.3
20260905034004 18 112 0.0 3.2 0.00 0.00 0.00 76 1021.5
20260905033505 18 97 1.6 3.2 0.00 0.00 0.00 76 1021.4
20260905033004 18 87 1.6 3.2 0.00 0.00 0.00 76 1021.4
20260905032504 18 86 1.6 3.2 0.00 0.00 0.00 75 1021.4
20260905032004 18 94 1.6 4.8 0.00 0.00 0.00 75 1021.4
20260905031505 18 87 1.6 4.8 0.00 0.00 0.00 75 1021.3
20260905030504 18 96 1.6 6.4 0.00 0.00 0.00 75 1021.3
20260905030005 18 111 3.2 8.0 0.00 0.00 0.00 75 1021.3
20260905025504 18 106 3.2 8.0 0.00 0.00 0.00 75 1021.2
20260905025004 18 85 1.6 3.2 0.00 0.00 0.00 74 1021.1
20260905024504 18 73 1.6 3.2 0.00 0.00 0.00 74 1021.1
20260905023504 18 68 3.2 6.4 0.00 0.00 0.00 74 1020.9
20260905023004 18 67 3.2 6.4 0.00 0.00 0.00 74 1021.2
20260905022504 18 65 4.8 6.4 0.00 0.00 0.00 74 1021.0
20260905022004 18 69 3.2 6.4 0.00 0.00 0.00 73 1021.1
20260905021504 18 75 3.2 6.4 0.00 0.00 0.00 73 1021.1
20260905021004 19 85 3.2 4.8 0.00 0.00 0.00 73 1021.0
20260905020504 19 93 1.6 3.2 0.00 0.00 0.00 73 1020.9
20260905020004 19 86 1.6 3.2 0.00 0.00 0.00 73 1021.1
20260905015503 19 79 1.6 4.8 0.00 0.00 0.00 73 1020.9
20260905015004 19 73 3.2 4.8 0.00 0.00 0.00 72 1021.1
20260905014505 19 80 3.2 4.8 0.00 0.00 0.00 72 1021.1
20260905014004 19 77 3.2 4.8 0.00 0.00 0.00 72 1021.1
20260905013504 19 78 1.6 4.8 0.00 0.00 0.00 72 1021.0
20260905013004 19 80 3.2 6.4 0.00 0.00 0.00 72 1021.0
20260905012504 19 68 3.2 6.4 0.00 0.00 0.00 72 1020.9
20260905011005 19 68 3.2 6.4 0.00 0.00 0.00 72 1020.7
20260905010505 19 67 4.8 9.7 0.00 0.00 0.00 72 1020.5
20260905010004 19 64 4.8 9.7 0.00 0.00 0.00 72 1020.5
20260905005504 19 76 4.8 8.0 0.00 0.00 0.00 72 1020.5
20260905004503 19 81 4.8 8.0 0.00 0.00 0.00 72 1020.8
20260905004004 19 77 3.2 6.4 0.00 0.00 0.00 71 1020.7
20260905003504 19 74 3.2 6.4 0.00 0.00 0.00 71 1020.8
20260905003004 20 79 3.2 6.4 0.00 0.00 0.00 71 1020.7
20260905002504 20 73 3.2 4.8 0.00 0.00 0.00 70 1020.6
20260905002004 20 63 3.2 6.4 0.00 0.00 0.00 70 1020.3
20260905001004 20 64 3.2 4.8 0.00 0.00 0.00 70 1020.5
20260905000005 20 66 3.2 6.4 0.00 0.00 0.00 70 1020.6
20260904235504 20 73 3.2 6.4 0.00 0.00 0.00 70 1020.3
20260904235004 20 80 3.2 8.0 0.00 0.00 0.00 70 1020.4
20260904234504 20 73 4.8 8.0 0.00 0.00 0.00 70 1020.3
20260904233503 20 67 4.8 8.0 0.00 0.00 0.00 70 1020.1
20260904233004 20 70 4.8 8.0 0.00 0.00 0.00 70 1020.0
20260904232505 20 66 3.2 8.0 0.00 0.00 0.00 70 1019.9
20260904232004 20 65 4.8 9.7 0.00 0.00 0.00 70 1019.8
20260904231504 20 64 4.8 9.7 0.00 0.00 0.00 70 1019.9
20260904231004 20 61 3.2 8.0 0.00 0.00 0.00 70 1019.8
20260904230504 20 61 4.8 8.0 0.00 0.00 0.00 70 1019.9
20260904230004 20 62 4.8 8.0 0.00 0.00 0.00 70 1019.7
20260904224004 21 53 3.2 8.0 0.00 0.00 0.00 69 1019.5
20260904223504 21 56 4.8 9.7 0.00 0.00 0.00 69 1019.5
20260904222505 21 57 3.2 9.7 0.00 0.00 0.00 69 1019.1
20260904221505 21 63 4.8 11.3 0.00 0.00 0.00 69 1019.3
20260904221004 21 60 4.8 11.3 0.00 0.00 0.00 69 1019.0
20260904220005 21 73 3.2 6.4 0.00 0.00 0.00 69 1019.2
20260904215504 21 69 4.8 6.4 0.00 0.00 0.00 69 1019.2
20260904215005 21 69 3.2 6.4 0.00 0.00 0.00 68 1019.2
20260904214504 21 68 1.6 4.8 0.00 0.00 0.00 68 1019.0
20260904213504 21 68 1.6 6.4 0.00 0.00 0.00 67 1018.9
20260904213004 21 65 3.2 8.0 0.00 0.00 0.00 66 1018.9
20260904212505 22 62 3.2 8.0 0.00 0.00 0.00 66 1018.8
20260904212004 22 64 3.2 8.0 0.00 0.00 0.00 66 1018.9
20260904211003 22 69 4.8 9.7 0.00 0.00 0.00 66 1018.8
20260904210004 22 74 3.2 6.4 0.00 0.00 0.00 66 1018.7
20260904205504 22 69 4.8 6.4 0.00 0.00 0.00 66 1018.8
20260904204504 22 80 4.8 9.7 0.00 0.00 0.00 66 1018.8
20260904204004 22 76 3.2 8.0 0.00 0.00 0.00 66 1018.8
20260904203504 22 75 3.2 8.0 0.00 0.00 0.00 66 1018.6
20260904203004 22 77 3.2 6.4 0.00 0.00 0.00 66 1018.8
20260904202504 22 81 3.2 8.0 0.00 0.00 0.00 66 1018.6
20260904202004 22 79 4.8 8.0 0.00 0.00 0.00 63 1018.8
20260904201504 22 71 4.8 9.7 0.00 0.00 0.00 63 1018.8
20260904201004 22 73 4.8 9.7 0.00 0.00 0.00 63 1018.8
20260904200504 22 76 6.4 9.7 0.00 0.00 0.00 63 1018.6
20260904200004 22 74 6.4 9.7 0.00 0.00 0.00 63 1018.6
20260904195004 22 68 4.8 6.4 0.00 0.00 0.00 64 1018.5
20260904194006 22 72 3.2 8.0 0.00 0.00 0.00 64 1018.6
20260904193504 22 67 4.8 8.0 0.00 0.00 0.00 64 1018.7
20260904193004 22 68 4.8 8.0 0.00 0.00 0.00 64 1018.7
20260904192004 23 69 4.8 9.7 0.00 0.00 0.00 63 1018.7
20260904191504 23 66 4.8 9.7 0.00 0.00 0.00 63 1018.5
20260904191004 23 65 4.8 8.0 0.00 0.00 0.00 63 1018.4
20260904190504 23 62 4.8 8.0 0.00 0.00 0.00 63 1018.6
20260904185504 23 60 4.8 6.4 0.00 0.00 0.00 62 1018.5
20260904185004 24 62 3.2 6.4 0.00 0.00 0.00 62 1018.4
20260904184004 24 59 4.8 8.0 0.00 0.00 0.00 60 1018.2
20260904183503 24 60 4.8 8.0 0.00 0.00 0.00 60 1018.3
20260904183004 25 62 4.8 8.0 0.00 0.00 0.00 59 1018.4
20260904182504 25 56 4.8 8.0 0.00 0.00 0.00 58 1018.3
20260904182004 25 52 3.2 6.4 0.00 0.00 0.00 57 1018.0
20260904181503 25 47 3.2 6.4 0.00 0.00 0.00 56 1018.0
20260904181005 26 48 3.2 6.4 0.00 0.00 0.00 55 1017.9
20260904180505 26 38 3.2 6.4 0.00 0.00 0.00 55 1018.0
20260904180005 26 34 3.2 6.4 0.00 0.00 0.00 54 1018.1
20260904175505 26 36 3.2 6.4 0.00 0.00 0.00 54 1017.9
20260904175006 27 36 3.2 6.4 0.00 0.00 0.00 53 1017.7
20260904174505 27 42 3.2 4.8 0.00 0.00 0.00 52 1017.7
20260904174005 28 263 1.6 3.2 0.00 0.00 0.00 47 1017.9
20260904173506 28 233 1.6 3.2 0.00 0.00 0.00 47 1017.7
20260904173005 28 233 1.6 4.8 0.00 0.00 0.00 46 1017.8
20260904172507 28 228 1.6 6.4 0.00 0.00 0.00 45 1017.7
20260904172006 29 230 4.8 14.5 0.00 0.00 0.00 45 1017.8
20260904171506 29 228 6.4 14.5 0.00 0.00 0.00 44 1017.9
20260904171005 29 230 6.4 12.9 0.00 0.00 0.00 44 1017.9
20260904170505 30 216 6.4 12.9 0.00 0.00 0.00 43 1017.8
20260904170006 30 216 6.4 14.5 0.00 0.00 0.00 42 1017.9
20260904165506 30 221 6.4 14.5 0.00 0.00 0.00 42 1017.8
20260904165006 30 224 8.0 19.3 0.00 0.00 0.00 41 1017.7
20260904164506 30 239 6.4 19.3 0.00 0.00 0.00 41 1017.8
20260904164007 31 240 8.0 14.5 0.00 0.00 0.00 40 1017.8
20260904163506 31 246 8.0 14.5 0.00 0.00 0.00 40 1017.8
20260904163006 31 244 9.7 14.5 0.00 0.00 0.00 40 1017.8
20260904162505 31 249 11.3 19.3 0.00 0.00 0.00 40 1017.8
20260904162005 31 242 9.7 19.3 0.00 0.00 0.00 40 1017.9
20260904161505 31 234 8.0 19.3 0.00 0.00 0.00 40 1017.7
20260904161005 31 234 8.0 19.3 0.00 0.00 0.00 41 1017.6
20260904160505 31 242 9.7 19.3 0.00 0.00 0.00 41 1017.8
20260904160005 31 255 8.0 12.9 0.00 0.00 0.00 41 1017.8
20260904155505 31 249 8.0 16.1 0.00 0.00 0.00 41 1017.7
20260904154005 30 256 11.3 20.9 0.00 0.00 0.00 41 1018.0
20260904153505 30 251 12.9 22.5 0.00 0.00 0.00 41 1018.0
20260904153005 30 240 12.9 22.5 0.00 0.00 0.00 41 1017.9
20260904152505 30 247 11.3 20.9 0.00 0.00 0.00 40 1017.9
20260904152005 30 264 11.3 20.9 0.00 0.00 0.00 41 1017.9
20260904151505 30 292 12.9 17.7 0.00 0.00 0.00 41 1017.9
20260904151005 30 270 12.9 24.1 0.00 0.00 0.00 41 1017.8
20260904150505 30 262 12.9 20.9 0.00 0.00 0.00 41 1017.7
20260904150005 30 263 14.5 20.9 0.00 0.00 0.00 41 1017.7
20260904145506 30 251 12.9 20.9 0.00 0.00 0.00 41 1017.6
20260904145006 30 240 12.9 20.9 0.00 0.00 0.00 41 1017.7
20260904144005 30 235 11.3 24.1 0.00 0.00 0.00 41 1017.8
20260904143506 30 239 11.3 22.5 0.00 0.00 0.00 42 1017.6
20260904143005 30 238 11.3 22.5 0.00 0.00 0.00 41 1017.8
20260904142005 30 246 11.3 19.3 0.00 0.00 0.00 42 1018.0
20260904141505 30 249 11.3 25.7 0.00 0.00 0.00 42 1018.1
20260904141005 30 243 11.3 25.7 0.00 0.00 0.00 42 1018.1
20260904140505 30 223 9.7 20.9 0.00 0.00 0.00 42 1018.1
20260904140005 30 230 9.7 20.9 0.00 0.00 0.00 42 1018.2
20260904135505 30 230 8.0 16.1 0.00 0.00 0.00 42 1018.4
20260904135005 30 229 9.7 20.9 0.00 0.00 0.00 42 1018.5
20260904134505 30 222 11.3 20.9 0.00 0.00 0.00 43 1018.5
20260904134005 30 223 12.9 24.1 0.00 0.00 0.00 42 1018.5
20260904133505 30 230 14.5 24.1 0.00 0.00 0.00 42 1018.5
20260904133005 30 231 12.9 24.1 0.00 0.00 0.00 43 1018.7
20260904132506 29 234 12.9 20.9 0.00 0.00 0.00 43 1018.5
20260904132005 29 232 14.5 24.1 0.00 0.00 0.00 43 1018.9
20260904131005 29 238 12.9 27.4 0.00 0.00 0.00 44 1019.0
20260904130505 29 243 11.3 20.9 0.00 0.00 0.00 44 1018.9
20260904130005 29 246 12.9 22.5 0.00 0.00 0.00 44 1019.0
20260904125505 29 240 12.9 22.5 0.00 0.00 0.00 44 1019.3
20260904125006 29 238 12.9 24.1 0.00 0.00 0.00 44 1019.2
20260904124505 29 241 11.3 24.1 0.00 0.00 0.00 44 1019.2
20260904123506 29 237 14.5 25.7 0.00 0.00 0.00 44 1019.5
20260904123006 29 232 14.5 24.1 0.00 0.00 0.00 45 1019.2
20260904122506 29 236 11.3 24.1 0.00 0.00 0.00 44 1019.3
20260904122006 29 247 9.7 20.9 0.00 0.00 0.00 44 1019.5
20260904121505 29 247 11.3 22.5 0.00 0.00 0.00 45 1019.5
20260904121005 28 249 12.9 22.5 0.00 0.00 0.00 45 1019.5
20260904120505 28 247 11.3 20.9 0.00 0.00 0.00 44 1019.4
20260904120005 28 250 12.9 22.5 0.00 0.00 0.00 44 1019.6
20260904115505 28 251 11.3 22.5 0.00 0.00 0.00 45 1019.5
20260904115005 28 246 12.9 22.5 0.00 0.00 0.00 45 1019.6
20260904114505 28 246 12.9 20.9 0.00 0.00 0.00 44 1019.4
20260904114005 28 239 11.3 19.3 0.00 0.00 0.00 44 1019.5
20260904113505 28 240 11.3 20.9 0.00 0.00 0.00 44 1019.6
20260904113005 28 237 11.3 20.9 0.00 0.00 0.00 43 1019.8
20260904112506 28 233 11.3 22.5 0.00 0.00 0.00 44 1019.9
20260904112005 28 231 11.3 22.5 0.00 0.00 0.00 43 1019.8
20260904111505 28 227 9.7 22.5 0.00 0.00 0.00 42 1020.0
20260904111005 28 232 9.7 22.5 0.00 0.00 0.00 43 1020.1
20260904110505 28 243 9.7 22.5 0.00 0.00 0.00 42 1020.0
20260904110006 28 250 8.0 16.1 0.00 0.00 0.00 42 1020.1
20260904105005 27 247 9.7 17.7 0.00 0.00 0.00 43 1020.2
20260904104505 27 248 9.7 17.7 0.00 0.00 0.00 43 1020.3
20260904104005 27 245 11.3 24.1 0.00 0.00 0.00 46 1020.5
20260904103005 27 226 11.3 22.5 0.00 0.00 0.00 46 1020.5
20260904102505 27 223 9.7 22.5 0.00 0.00 0.00 46 1020.6
20260904102005 27 228 9.7 22.5 0.00 0.00 0.00 46 1020.4
20260904101506 27 233 9.7 17.7 0.00 0.00 0.00 46 1020.6
20260904101005 27 239 8.0 17.7 0.00 0.00 0.00 46 1020.8
20260904100505 26 242 6.4 14.5 0.00 0.00 0.00 46 1020.9